EW2118 Weather Reports


time (UTC)temp
F
wind
direction
speed
knots
gust
knots
rain 1hr
in
rain 24hr
in
rain mn
in
humidity
%
barometer
mb
20260507170204 54 27 7.0 10.4 0.00 0.00 0.00 29 1011.2
20260507170004 54 24 7.0 10.4 0.00 0.00 0.00 29 1011.1
20260507165804 54 23 7.0 13.0 0.00 0.00 0.00 29 1011.1
20260507165604 54 22 5.2 13.0 0.00 0.00 0.00 29 1011.1
20260507165404 54 20 3.5 13.0 0.00 0.00 0.00 29 1011.3
20260507165204 54 23 5.2 13.0 0.00 0.00 0.00 28 1011.2
20260507165025 54 24 7.8 13.0 0.00 0.00 0.00 28 1011.2
20260507164804 54 24 7.0 12.2 0.00 0.00 0.00 29 1011.1
20260507164604 53 24 7.0 12.2 0.00 0.00 0.00 28 1011.2
20260507164404 54 23 6.1 12.2 0.00 0.00 0.00 28 1011.2
20260507164204 54 24 6.1 13.9 0.00 0.00 0.00 28 1011.2
20260507164004 54 26 6.1 14.8 0.00 0.00 0.00 28 1011.2
20260507163804 54 28 7.0 14.8 0.00 0.00 0.00 28 1011.2
20260507163604 54 27 7.0 14.8 0.00 0.00 0.00 29 1011.1
20260507163404 54 31 9.6 14.8 0.00 0.00 0.00 28 1011.1
20260507163204 54 32 9.6 14.8 0.00 0.00 0.00 28 1011.2
20260507163004 54 30 8.7 13.0 0.00 0.00 0.00 29 1011.1
20260507162825 54 30 7.8 15.6 0.00 0.00 0.00 28 1011.1
20260507162625 54 32 9.6 15.6 0.00 0.00 0.00 29 1011.1
20260507162404 54 31 7.0 15.6 0.00 0.00 0.00 29 1011.0
20260507162204 54 30 8.7 15.6 0.00 0.00 0.00 29 1011.0
20260507162004 54 30 11.3 15.6 0.00 0.00 0.00 29 1010.9
20260507161805 54 29 10.4 14.8 0.00 0.00 0.00 29 1010.9
20260507161604 54 28 10.4 13.9 0.00 0.00 0.00 29 1010.8
20260507161425 54 29 10.4 14.8 0.00 0.00 0.00 29 1010.8
20260507161204 54 28 7.8 14.8 0.00 0.00 0.00 29 1010.9
20260507161004 54 30 9.6 15.6 0.00 0.00 0.00 28 1010.8
20260507160825 54 33 7.8 15.6 0.00 0.00 0.00 29 1010.9
20260507160604 54 35 9.6 18.2 0.00 0.00 0.00 28 1010.8
20260507160404 54 38 7.0 18.2 0.00 0.00 0.00 27 1010.7
20260507160204 54 39 11.3 18.2 0.00 0.00 0.00 27 1010.8
20260507160004 55 38 9.6 18.2 0.00 0.00 0.00 27 1010.8
20260507155804 55 37 13.9 18.2 0.00 0.00 0.00 27 1010.8
20260507155604 56 39 11.3 17.4 0.00 0.00 0.00 27 1010.7
20260507155404 56 39 10.4 17.4 0.00 0.00 0.00 28 1010.8
20260507155225 56 39 10.4 16.5 0.00 0.00 0.00 28 1010.7
20260507155004 56 40 12.2 16.5 0.00 0.00 0.00 27 1010.7
20260507154804 56 40 11.3 14.8 0.00 0.00 0.00 28 1010.6
20260507154604 55 37 12.2 14.8 0.00 0.00 0.00 27 1010.7
20260507154404 55 34 9.6 14.8 0.00 0.00 0.00 27 1010.7
20260507154204 55 34 8.7 13.0 0.00 0.00 0.00 27 1010.8
20260507154004 56 36 9.6 13.0 0.00 0.00 0.00 28 1010.9
20260507153825 56 38 7.0 13.0 0.00 0.00 0.00 28 1010.9
20260507153625 56 42 7.8 11.3 0.00 0.00 0.00 27 1010.9
20260507153404 56 48 6.1 11.3 0.00 0.00 0.00 28 1010.9
20260507153204 56 53 7.0 11.3 0.00 0.00 0.00 28 1010.9
20260507153025 56 59 6.1 12.2 0.00 0.00 0.00 30 1010.9
20260507152804 55 60 5.2 12.2 0.00 0.00 0.00 28 1010.8
20260507152604 55 61 7.0 12.2 0.00 0.00 0.00 27 1010.8
20260507152404 56 62 7.8 12.2 0.00 0.00 0.00 27 1010.7
20260507152204 56 57 8.7 12.2 0.00 0.00 0.00 28 1010.8
20260507152004 56 54 7.8 12.2 0.00 0.00 0.00 28 1010.7
20260507151804 56 50 5.2 11.3 0.00 0.00 0.00 28 1010.8
20260507151604 55 50 7.8 11.3 0.00 0.00 0.00 28 1010.8
20260507151404 55 52 8.7 12.2 0.00 0.00 0.00 28 1010.8
20260507151204 55 55 7.0 12.2 0.00 0.00 0.00 31 1010.9
20260507151004 54 52 4.3 12.2 0.00 0.00 0.00 29 1010.9
20260507150804 55 53 7.0 12.2 0.00 0.00 0.00 28 1011.0
20260507150604 55 52 7.0 12.2 0.00 0.00 0.00 28 1011.0
20260507150404 55 49 5.2 13.0 0.00 0.00 0.00 29 1011.1
20260507150204 54 47 7.0 13.0 0.00 0.00 0.00 30 1011.1
20260507150005 54 47 7.8 13.0 0.00 0.00 0.00 30 1011.1
20260507145804 54 48 7.0 13.0 0.00 0.00 0.00 28 1011.1
20260507145604 54 47 8.7 13.0 0.00 0.00 0.00 29 1011.1
20260507145404 54 45 9.6 12.2 0.00 0.00 0.00 29 1011.1
20260507145225 54 42 7.8 11.3 0.00 0.00 0.00 29 1011.1
20260507145004 54 39 7.8 11.3 0.00 0.00 0.00 28 1011.1
20260507144804 54 35 7.8 11.3 0.00 0.00 0.00 29 1011.2
20260507144604 54 32 6.1 7.8 0.00 0.00 0.00 28 1011.2
20260507144425 54 26 6.1 7.8 0.00 0.00 0.00 27 1011.1
20260507144204 54 16 6.1 11.3 0.00 0.00 0.00 27 1011.1
20260507144004 54 9 4.3 11.3 0.00 0.00 0.00 27 1011.1
20260507143825 54 3 4.3 11.3 0.00 0.00 0.00 28 1011.2
20260507143604 54 359 3.5 11.3 0.00 0.00 0.00 28 1011.1
20260507143404 54 360 5.2 11.3 0.00 0.00 0.00 28 1011.1
20260507143204 53 2 5.2 10.4 0.00 0.00 0.00 29 1011.1
20260507143004 53 3 4.3 10.4 0.00 0.00 0.00 28 1011.1
20260507142804 53 1 4.3 10.4 0.00 0.00 0.00 28 1011.1
20260507142604 52 1 5.2 10.4 0.00 0.00 0.00 28 1011.0
20260507142004 52 347 4.3 12.2 0.00 0.00 0.00 29 1011.0
20260507141825 52 349 5.2 12.2 0.00 0.00 0.00 29 1011.0
20260507141604 52 349 5.2 11.3 0.00 0.00 0.00 29 1011.0
20260507141404 52 350 5.2 7.8 0.00 0.00 0.00 28 1011.0
20260507141204 52 347 4.3 7.0 0.00 0.00 0.00 27 1011.1
20260507141025 52 344 4.3 7.0 0.00 0.00 0.00 30 1011.0
20260507140804 52 332 4.3 6.1 0.00 0.00 0.00 30 1011.0
20260507140604 52 317 2.6 6.1 0.00 0.00 0.00 29 1010.8
20260507140404 52 303 1.7 6.1 0.00 0.00 0.00 30 1010.8
20260507140204 52 299 3.5 6.1 0.00 0.00 0.00 30 1010.8
20260507140004 52 295 2.6 6.1 0.00 0.00 0.00 30 1010.9
20260507135804 52 293 2.6 6.1 0.00 0.00 0.00 31 1010.8
20260507135604 52 296 3.5 6.1 0.00 0.00 0.00 31 1010.9
20260507135425 52 298 2.6 6.1 0.00 0.00 0.00 31 1010.9
20260507135204 51 296 3.5 6.1 0.00 0.00 0.00 32 1010.9
20260507135004 51 295 2.6 6.1 0.00 0.00 0.00 32 1010.8
20260507134804 51 296 4.3 6.1 0.00 0.00 0.00 31 1010.8
20260507134625 51 293 2.6 5.2 0.00 0.00 0.00 32 1010.8
20260507134404 50 295 2.6 5.2 0.00 0.00 0.00 33 1010.8
20260507134204 50 297 2.6 5.2 0.00 0.00 0.00 32 1010.8
20260507134004 50 299 3.5 5.2 0.00 0.00 0.00 32 1010.8
20260507133804 50 304 2.6 5.2 0.00 0.00 0.00 34 1010.7
20260507133604 50 307 2.6 5.2 0.00 0.00 0.00 32 1010.7
20260507133425 50 308 2.6 5.2 0.00 0.00 0.00 32 1010.6
20260507133204 50 305 1.7 5.2 0.00 0.00 0.00 34 1010.6
20260507133025 49 302 2.6 5.2 0.00 0.00 0.00 32 1010.7
20260507132804 49 294 2.6 4.3 0.00 0.00 0.00 34 1010.6
20260507132625 49 289 2.6 6.1 0.00 0.00 0.00 34 1010.7
20260507132405 49 281 1.7 6.1 0.00 0.00 0.00 36 1010.7
20260507132204 49 280 2.6 6.1 0.00 0.00 0.00 34 1010.8
20260507132004 49 281 2.6 6.1 0.00 0.00 0.00 34 1010.7
20260507131804 48 281 3.5 6.1 0.00 0.00 0.00 37 1010.6
20260507131604 48 281 3.5 5.2 0.00 0.00 0.00 37 1010.6
20260507131404 48 284 2.6 5.2 0.00 0.00 0.00 34 1010.6
20260507131204 48 283 3.5 5.2 0.00 0.00 0.00 36 1010.5
20260507131025 48 283 3.5 5.2 0.00 0.00 0.00 36 1010.5
20260507130805 47 282 2.6 5.2 0.00 0.00 0.00 36 1010.5
20260507130604 47 281 3.5 5.2 0.00 0.00 0.00 36 1010.3
20260507130404 46 282 2.6 6.1 0.00 0.00 0.00 37 1010.4
20260507130225 46 283 2.6 6.1 0.00 0.00 0.00 38 1010.4
20260507130004 46 283 4.3 6.1 0.00 0.00 0.00 38 1010.4
20260507125804 46 285 3.5 7.0 0.00 0.00 0.00 37 1010.4
20260507125604 45 285 4.3 7.0 0.00 0.00 0.00 38 1010.3
20260507125404 45 283 4.3 7.8 0.00 0.00 0.00 40 1010.4
20260507125204 44 283 3.5 7.8 0.00 0.00 0.00 39 1010.3
20260507125025 44 282 4.3 7.8 0.00 0.00 0.00 39 1010.3
20260507124804 44 280 6.1 7.8 0.00 0.00 0.00 39 1010.2
20260507124625 44 279 6.1 7.8 0.00 0.00 0.00 39 1010.2
20260507124404 43 278 7.0 8.7 0.00 0.00 0.00 40 1010.2
20260507124204 43 276 6.1 8.7 0.00 0.00 0.00 41 1010.1
20260507124004 43 276 7.0 10.4 0.00 0.00 0.00 40 1010.2
20260507123804 42 275 7.0 10.4 0.00 0.00 0.00 40 1010.1
20260507123604 42 274 7.0 10.4 0.00 0.00 0.00 40 1010.1
20260507123404 42 273 7.0 10.4 0.00 0.00 0.00 40 1010.1
20260507123204 42 272 7.8 10.4 0.00 0.00 0.00 40 1010.1
20260507123004 42 271 7.8 10.4 0.00 0.00 0.00 40 1010.0
20260507122804 41 271 7.8 10.4 0.00 0.00 0.00 41 1009.9
20260507122625 41 272 7.8 10.4 0.00 0.00 0.00 41 1009.9
20260507122404 41 274 7.8 10.4 0.00 0.00 0.00 40 1009.9
20260507122204 41 277 7.8 10.4 0.00 0.00 0.00 40 1009.8
20260507122004 41 279 7.8 10.4 0.00 0.00 0.00 41 1009.9
20260507121804 40 282 7.8 10.4 0.00 0.00 0.00 42 1009.9
20260507121604 40 283 7.8 10.4 0.00 0.00 0.00 42 1009.8
20260507121404 40 283 7.8 10.4 0.00 0.00 0.00 42 1009.8
20260507121204 40 281 7.8 10.4 0.00 0.00 0.00 42 1009.8
20260507121004 40 279 7.0 8.7 0.00 0.00 0.00 42 1009.7
20260507120804 40 276 7.0 8.7 0.00 0.00 0.00 42 1009.7
20260507120604 40 273 7.0 10.4 0.00 0.00 0.00 42 1009.7
20260507120404 39 270 7.0 10.4 0.00 0.00 0.00 42 1009.7
20260507120204 39 269 7.0 10.4 0.00 0.00 0.00 42 1009.8
20260507120004 39 267 7.8 10.4 0.00 0.00 0.00 42 1009.7
20260507115804 39 266 7.8 10.4 0.00 0.00 0.00 42 1009.8
20260507115604 39 267 7.8 10.4 0.00 0.00 0.00 42 1009.7
20260507115404 39 268 7.8 10.4 0.00 0.00 0.00 42 1009.7
20260507115204 39 268 7.0 10.4 0.00 0.00 0.00 42 1009.6
20260507115004 39 270 7.0 10.4 0.00 0.00 0.00 42 1009.6
20260507114804 39 273 7.0 10.4 0.00 0.00 0.00 41 1009.7
20260507114604 39 274 7.0 10.4 0.00 0.00 0.00 41 1009.6
20260507114404 39 275 7.0 10.4 0.00 0.00 0.00 41 1009.5
20260507114204 39 277 7.8 8.7 0.00 0.00 0.00 41 1009.6
20260507114004 39 279 7.0 8.7 0.00 0.00 0.00 41 1009.5
20260507113825 40 281 6.1 8.7 0.00 0.00 0.00 40 1009.5
20260507113625 40 281 6.1 8.7 0.00 0.00 0.00 40 1009.4
20260507113425 40 282 7.0 8.7 0.00 0.00 0.00 40 1009.4
20260507113204 40 280 7.8 8.7 0.00 0.00 0.00 40 1009.3
20260507113025 40 278 7.8 8.7 0.00 0.00 0.00 40 1009.4
20260507112804 40 277 7.0 7.8 0.00 0.00 0.00 39 1009.4
20260507112604 40 276 6.1 7.8 0.00 0.00 0.00 39 1009.3
20260507112404 40 276 6.1 7.8 0.00 0.00 0.00 39 1009.3
20260507112225 40 278 6.1 7.8 0.00 0.00 0.00 38 1009.3
20260507112025 40 278 7.0 7.8 0.00 0.00 0.00 39 1009.4
20260507111804 41 278 7.0 7.8 0.00 0.00 0.00 38 1009.4
20260507111625 41 278 7.0 7.8 0.00 0.00 0.00 38 1009.4
20260507111404 41 276 7.0 7.8 0.00 0.00 0.00 38 1009.4
20260507111225 41 274 6.1 7.8 0.00 0.00 0.00 38 1009.3
20260507111004 41 271 6.1 8.7 0.00 0.00 0.00 38 1009.3
20260507110804 41 269 7.0 8.7 0.00 0.00 0.00 37 1009.3
20260507110604 41 266 6.1 8.7 0.00 0.00 0.00 37 1009.3
20260507110404 41 263 6.1 8.7 0.00 0.00 0.00 37 1009.3
20260507110204 41 261 6.1 8.7 0.00 0.00 0.00 37 1009.3
20260507110004 41 259 6.1 7.8 0.00 0.00 0.00 37 1009.3
20260507105804 41 258 6.1 8.7 0.00 0.00 0.00 37 1009.3
20260507105609 41 257 6.1 8.7 0.00 0.00 0.00 37 1009.2
20260507105404 41 257 6.1 8.7 0.00 0.00 0.00 37 1009.3
20260507105225 41 256 6.1 8.7 0.00 0.00 0.00 37 1009.3
20260507105004 41 257 6.1 8.7 0.00 0.00 0.00 37 1009.2
20260507104804 41 257 6.1 7.8 0.00 0.00 0.00 37 1009.2
20260507104604 41 258 5.2 7.8 0.00 0.00 0.00 37 1009.1
20260507104404 41 260 6.1 8.7 0.00 0.00 0.00 37 1009.2
20260507104204 41 263 6.1 8.7 0.00 0.00 0.00 38 1009.2
20260507104025 41 265 6.1 8.7 0.00 0.00 0.00 38 1009.2
20260507103804 41 269 7.0 8.7 0.00 0.00 0.00 38 1009.2
20260507103604 41 273 7.0 8.7 0.00 0.00 0.00 38 1009.1
20260507103404 41 276 7.0 8.7 0.00 0.00 0.00 38 1009.2
20260507103204 41 278 7.0 8.7 0.00 0.00 0.00 38 1009.1
20260507103004 41 281 7.0 10.4 0.00 0.00 0.00 38 1009.1
20260507102804 41 283 7.0 10.4 0.00 0.00 0.00 38 1009.1
20260507102604 41 283 7.8 10.4 0.00 0.00 0.00 38 1009.1
20260507102404 41 284 7.0 10.4 0.00 0.00 0.00 37 1009.1
20260507102204 41 284 7.8 10.4 0.00 0.00 0.00 37 1009.2
20260507102004 41 284 7.0 10.4 0.00 0.00 0.00 38 1009.1
20260507101804 41 284 7.0 10.4 0.00 0.00 0.00 37 1009.1
20260507101604 41 284 7.8 10.4 0.00 0.00 0.00 37 1009.2
20260507101404 41 284 7.8 10.4 0.00 0.00 0.00 38 1009.2
20260507101225 41 284 7.8 10.4 0.00 0.00 0.00 38 1009.2
20260507101025 41 284 7.8 8.7 0.00 0.00 0.00 38 1009.2
20260507100804 41 284 7.0 8.7 0.00 0.00 0.00 37 1009.2
20260507100604 41 284 7.8 8.7 0.00 0.00 0.00 38 1009.2
20260507100404 41 284 7.8 8.7 0.00 0.00 0.00 38 1009.2
20260507100204 41 284 7.8 8.7 0.00 0.00 0.00 38 1009.1
20260507100004 41 285 7.0 7.8 0.00 0.00 0.00 38 1009.1
20260507095804 41 285 5.2 7.8 0.00 0.00 0.00 38 1009.2
20260507095604 41 283 6.1 8.7 0.00 0.00 0.00 38 1009.2
20260507095404 41 283 6.1 10.4 0.00 0.00 0.00 38 1009.1
20260507095204 41 283 7.0 10.4 0.00 0.00 0.00 38 1009.2
20260507095004 41 282 7.0 10.4 0.00 0.00 0.00 38 1009.2
20260507094804 41 282 7.8 10.4 0.00 0.00 0.00 38 1009.2
20260507094604 41 283 7.8 10.4 0.00 0.00 0.00 38 1009.2
20260507094404 41 282 7.8 10.4 0.00 0.00 0.00 38 1009.2
20260507094204 41 282 7.8 10.4 0.00 0.00 0.00 38 1009.2
20260507094005 41 282 7.8 10.4 0.00 0.00 0.00 38 1009.1
20260507093825 41 281 7.8 10.4 0.00 0.00 0.00 38 1009.2
20260507093604 41 280 7.8 10.4 0.00 0.00 0.00 38 1009.1
20260507093404 41 280 7.8 10.4 0.00 0.00 0.00 38 1009.1
20260507093225 41 279 7.8 10.4 0.00 0.00 0.00 38 1009.1
20260507093004 41 279 7.8 10.4 0.00 0.00 0.00 38 1009.1
20260507092804 41 278 7.8 10.4 0.00 0.00 0.00 38 1008.9
20260507092604 40 277 7.8 10.4 0.00 0.00 0.00 38 1008.9
20260507092404 40 276 7.8 11.3 0.00 0.00 0.00 38 1008.9
20260507092204 40 275 8.7 11.3 0.00 0.00 0.00 38 1009.0
20260507092004 40 275 8.7 11.3 0.00 0.00 0.00 38 1009.0
20260507091804 40 276 8.7 11.3 0.00 0.00 0.00 38 1008.9
20260507091604 40 276 8.7 11.3 0.00 0.00 0.00 38 1009.0
20260507091404 40 275 7.8 11.3 0.00 0.00 0.00 38 1009.0
20260507091225 40 275 7.8 11.3 0.00 0.00 0.00 38 1008.9
20260507091025 40 275 7.8 11.3 0.00 0.00 0.00 38 1008.9
20260507090804 40 275 8.7 10.4 0.00 0.00 0.00 38 1008.9
20260507090604 40 275 8.7 11.3 0.00 0.00 0.00 38 1008.9
20260507090425 40 276 8.7 11.3 0.00 0.00 0.00 38 1008.9
20260507090204 40 277 8.7 11.3 0.00 0.00 0.00 39 1008.9
20260507090004 40 277 8.7 11.3 0.00 0.00 0.00 39 1008.9
20260507085804 40 278 8.7 11.3 0.00 0.00 0.00 39 1008.9
20260507085604 40 279 8.7 11.3 0.00 0.00 0.00 39 1008.9
20260507085404 40 280 7.8 11.3 0.00 0.00 0.00 39 1008.9
20260507085204 40 282 8.7 12.2 0.00 0.00 0.00 38 1008.9
20260507085004 40 283 8.7 12.2 0.00 0.00 0.00 38 1008.8
20260507084804 40 284 8.7 12.2 0.00 0.00 0.00 38 1008.9
20260507084604 40 284 8.7 12.2 0.00 0.00 0.00 38 1008.8
20260507084404 41 285 8.7 12.2 0.00 0.00 0.00 37 1008.8
20260507084204 41 285 8.7 11.3 0.00 0.00 0.00 37 1008.8
20260507084004 41 285 8.7 11.3 0.00 0.00 0.00 37 1008.8
20260507083804 41 286 8.7 11.3 0.00 0.00 0.00 37 1008.8
20260507083604 41 287 7.8 10.4 0.00 0.00 0.00 37 1008.8
20260507083404 41 287 7.8 10.4 0.00 0.00 0.00 37 1008.7
20260507083205 41 286 7.0 10.4 0.00 0.00 0.00 37 1008.7
20260507083004 41 285 6.1 10.4 0.00 0.00 0.00 37 1008.7
20260507082804 41 285 7.0 10.4 0.00 0.00 0.00 37 1008.8
20260507082604 40 284 8.7 10.4 0.00 0.00 0.00 37 1008.8
20260507082404 40 284 7.8 8.7 0.00 0.00 0.00 37 1008.9
20260507082204 40 284 7.8 8.7 0.00 0.00 0.00 37 1008.8
20260507082004 40 282 6.1 8.7 0.00 0.00 0.00 37 1008.8
20260507081804 40 281 7.0 8.7 0.00 0.00 0.00 38 1008.9
20260507081604 40 279 7.0 8.7 0.00 0.00 0.00 38 1008.9
20260507081404 40 279 7.0 8.7 0.00 0.00 0.00 37 1008.9
20260507081204 40 280 7.8 8.7 0.00 0.00 0.00 37 1009.0
20260507081004 41 280 7.0 8.7 0.00 0.00 0.00 37 1008.9
20260507080804 41 279 7.0 8.7 0.00 0.00 0.00 37 1008.9
20260507080604 41 278 7.0 8.7 0.00 0.00 0.00 37 1009.0
20260507080404 41 277 7.8 10.4 0.00 0.00 0.00 37 1009.1
20260507080204 41 276 7.0 10.4 0.00 0.00 0.00 37 1009.1
20260507080004 41 276 7.8 10.4 0.00 0.00 0.00 37 1009.2
20260507075804 41 276 7.8 10.4 0.00 0.00 0.00 36 1009.2
20260507075604 41 274 7.8 10.4 0.00 0.00 0.00 37 1009.2
20260507075404 41 271 7.8 10.4 0.00 0.00 0.00 36 1009.3
20260507075204 41 268 7.8 10.4 0.00 0.00 0.00 36 1009.3
20260507075004 41 264 7.0 10.4 0.00 0.00 0.00 36 1009.3
20260507074804 41 263 5.2 8.7 0.00 0.00 0.00 36 1009.3
20260507074625 41 264 6.1 8.7 0.00 0.00 0.00 36 1009.2
20260507074404 41 265 6.1 10.4 0.00 0.00 0.00 36 1009.4
20260507074204 41 265 7.0 10.4 0.00 0.00 0.00 36 1009.4
20260507074004 41 264 7.8 10.4 0.00 0.00 0.00 36 1009.4
20260507073825 41 262 7.0 10.4 0.00 0.00 0.00 36 1009.3
20260507073604 41 261 7.8 10.4 0.00 0.00 0.00 36 1009.4
20260507073403 41 260 7.0 10.4 0.00 0.00 0.00 37 1009.4
20260507073204 41 260 7.0 10.4 0.00 0.00 0.00 37 1009.3
20260507073004 40 261 7.0 10.4 0.00 0.00 0.00 37 1009.4
20260507072804 40 265 7.8 10.4 0.00 0.00 0.00 37 1009.4
20260507072604 40 269 7.0 10.4 0.00 0.00 0.00 37 1009.4
20260507072404 40 271 7.0 10.4 0.00 0.00 0.00 37 1009.4
20260507072204 40 274 7.8 10.4 0.00 0.00 0.00 38 1009.4
20260507072004 40 277 7.8 10.4 0.00 0.00 0.00 37 1009.3
20260507071825 41 278 8.7 10.4 0.00 0.00 0.00 37 1009.4
20260507071604 41 279 8.7 10.4 0.00 0.00 0.00 37 1009.4
20260507071404 41 278 8.7 10.4 0.00 0.00 0.00 37 1009.4
20260507071225 41 277 8.7 10.4 0.00 0.00 0.00 37 1009.4
20260507071004 41 274 7.8 10.4 0.00 0.00 0.00 37 1009.5
20260507070804 41 271 7.8 8.7 0.00 0.00 0.00 37 1009.5
20260507070604 41 269 7.8 8.7 0.00 0.00 0.00 36 1009.5
20260507070404 41 267 7.8 8.7 0.00 0.00 0.00 36 1009.4
20260507070204 42 264 7.0 8.7 0.00 0.00 0.00 36 1009.5
20260507070025 42 263 7.0 8.7 0.00 0.00 0.00 36 1009.6
20260507065825 42 261 7.0 8.7 0.00 0.00 0.00 36 1009.5
20260507065604 42 259 6.1 7.8 0.00 0.00 0.00 35 1009.5
20260507065425 42 258 5.2 7.8 0.00 0.00 0.00 35 1009.5
20260507065204 42 256 6.1 7.8 0.00 0.00 0.00 35 1009.6
20260507065025 42 255 6.1 7.8 0.00 0.00 0.00 35 1009.7
20260507064804 43 254 6.1 7.0 0.00 0.00 0.00 34 1009.7
20260507064604 43 253 5.2 7.8 0.00 0.00 0.00 34 1009.7
20260507064425 43 252 5.2 7.8 0.00 0.00 0.00 34 1009.6
20260507064204 43 251 5.2 8.7 0.00 0.00 0.00 34 1009.7
20260507064004 43 250 5.2 8.7 0.00 0.00 0.00 34 1009.8
20260507063804 42 249 6.1 8.7 0.00 0.00 0.00 34 1009.7
20260507063604 42 248 6.1 8.7 0.00 0.00 0.00 34 1009.7
20260507063425 42 248 7.0 8.7 0.00 0.00 0.00 34 1009.7
20260507063204 42 249 6.1 7.0 0.00 0.00 0.00 35 1009.7
20260507063004 42 249 5.2 7.8 0.00 0.00 0.00 35 1009.8
20260507062804 41 249 5.2 7.8 0.00 0.00 0.00 35 1009.7
20260507062604 41 250 5.2 11.3 0.00 0.00 0.00 36 1009.7
20260507062404 41 250 5.2 11.3 0.00 0.00 0.00 37 1009.8
20260507062204 41 253 6.1 11.3 0.00 0.00 0.00 37 1009.8
20260507062004 41 255 6.1 11.3 0.00 0.00 0.00 37 1009.9
20260507061804 41 257 7.8 11.3 0.00 0.00 0.00 37 1009.9
20260507061604 41 256 7.0 8.7 0.00 0.00 0.00 38 1009.9
20260507061404 41 252 6.1 10.4 0.00 0.00 0.00 38 1009.9
20260507061225 42 246 6.1 10.4 0.00 0.00 0.00 38 1009.9
20260507061025 42 240 6.1 10.4 0.00 0.00 0.00 38 1010.0
20260507060804 42 232 6.1 10.4 0.00 0.00 0.00 38 1009.9
20260507060604 42 230 7.0 10.4 0.00 0.00 0.00 39 1009.9
20260507060404 42 229 6.1 10.4 0.00 0.00 0.00 39 1009.9
20260507060204 41 230 6.1 10.4 0.00 0.00 0.00 39 1009.9
20260507060004 41 229 7.0 11.3 0.00 0.00 0.00 40 1009.9
20260507055804 41 230 7.0 11.3 0.00 0.00 0.00 40 1009.9
20260507055625 41 229 6.1 11.3 0.00 0.00 0.00 40 1009.9
20260507055404 41 230 6.1 11.3 0.00 0.00 0.00 41 1009.9
20260507055204 41 229 7.8 11.3 0.00 0.00 0.00 41 1010.0
20260507055004 41 228 7.8 10.4 0.00 0.00 0.00 41 1010.0
20260507054804 41 227 7.0 10.4 0.00 0.00 0.00 41 1010.0
20260507054604 41 227 7.0 10.4 0.00 0.00 0.00 41 1010.0
20260507054404 40 227 6.1 10.4 0.00 0.00 0.00 42 1010.0
20260507054204 40 228 6.1 10.4 0.00 0.00 0.00 42 1010.0
20260507054004 41 227 6.1 10.4 0.00 0.00 0.00 42 1009.9
20260507053804 41 227 6.1 10.4 0.00 0.00 0.00 42 1009.9
20260507053603 41 227 5.2 10.4 0.00 0.00 0.00 42 1009.9
20260507053404 41 226 7.0 10.4 0.00 0.00 0.00 42 1009.9
20260507053204 41 225 7.0 10.4 0.00 0.00 0.00 42 1009.9
20260507053004 41 224 7.0 10.4 0.00 0.00 0.00 42 1009.9
20260507052804 41 223 6.1 11.3 0.00 0.00 0.00 42 1009.9
20260507052625 41 223 7.0 11.3 0.00 0.00 0.00 42 1009.9
20260507052404 41 223 7.0 11.3 0.00 0.00 0.00 42 1009.9
20260507052204 41 222 7.0 11.3 0.00 0.00 0.00 42 1009.9
20260507052004 41 223 7.0 11.3 0.00 0.00 0.00 42 1009.9
20260507051804 41 224 7.0 10.4 0.00 0.00 0.00 42 1010.0
20260507051604 41 224 7.0 11.3 0.00 0.00 0.00 42 1009.9
20260507051404 40 223 7.8 11.3 0.00 0.00 0.00 42 1010.0
20260507051204 40 223 7.0 11.3 0.00 0.00 0.00 43 1010.0
20260507051004 40 222 6.1 11.3 0.00 0.00 0.00 43 1010.0
20260507050804 40 222 7.0 11.3 0.00 0.00 0.00 44 1010.0
20260507050625 40 221 6.1 8.7 0.00 0.00 0.00 44 1010.0
20260507050404 40 221 6.1 8.7 0.00 0.00 0.00 44 1010.2
20260507050204 40 221 5.2 7.8 0.00 0.00 0.00 44 1010.1
20260507050004 40 220 5.2 7.8 0.00 0.00 0.00 44 1010.1
20260507045825 40 219 5.2 7.8 0.00 0.00 0.00 44 1010.2
20260507045604 40 218 5.2 8.7 0.00 0.00 0.00 43 1010.2
20260507045425 40 216 5.2 8.7 0.00 0.00 0.00 43 1010.2
20260507045225 40 216 5.2 8.7 0.00 0.00 0.00 43 1010.3
20260507045004 40 216 5.2 8.7 0.00 0.00 0.00 42 1010.2
20260507044804 40 214 6.1 8.7 0.00 0.00 0.00 43 1010.3
20260507044604 40 215 6.1 10.4 0.00 0.00 0.00 42 1010.3
20260507044404 41 216 7.0 10.4 0.00 0.00 0.00 42 1010.2
20260507044204 40 214 5.2 10.4 0.00 0.00 0.00 42 1010.3
20260507044004 40 213 6.1 10.4 0.00 0.00 0.00 42 1010.3
20260507043804 40 214 6.1 10.4 0.00 0.00 0.00 42 1010.3
20260507043604 40 213 6.1 8.7 0.00 0.00 0.00 42 1010.4
20260507043425 40 213 6.1 8.7 0.00 0.00 0.00 43 1010.4
20260507043204 40 213 5.2 8.7 0.00 0.00 0.00 43 1010.4
20260507043004 40 213 6.1 8.7 0.00 0.00 0.00 43 1010.4
20260507042804 40 215 5.2 7.8 0.00 0.00 0.00 43 1010.4
20260507042604 40 214 5.2 7.8 0.00 0.00 0.00 43 1010.5
20260507042404 40 214 5.2 7.8 0.00 0.00 0.00 43 1010.5
20260507042204 40 214 5.2 7.8 0.00 0.00 0.00 43 1010.5
20260507042004 40 214 6.1 7.8 0.00 0.00 0.00 43 1010.6
20260507041804 41 214 5.2 8.7 0.00 0.00 0.00 42 1010.6
20260507041604 41 214 5.2 8.7 0.00 0.00 0.00 42 1010.6
20260507041404 41 213 5.2 8.7 0.00 0.00 0.00 42 1010.7
20260507041204 41 214 5.2 8.7 0.00 0.00 0.00 41 1010.7
20260507041025 41 214 6.1 8.7 0.00 0.00 0.00 41 1010.7
20260507040804 42 216 5.2 8.7 0.00 0.00 0.00 41 1010.8
20260507040625 42 217 5.2 8.7 0.00 0.00 0.00 41 1010.8
20260507040404 42 220 5.2 8.7 0.00 0.00 0.00 40 1010.8
20260507040204 42 224 5.2 8.7 0.00 0.00 0.00 40 1010.8
20260507040004 42 226 5.2 7.0 0.00 0.00 0.00 40 1010.8
20260507035804 42 227 5.2 7.0 0.00 0.00 0.00 40 1010.9
20260507035625 42 226 6.1 7.8 0.00 0.00 0.00 40 1010.9
20260507035404 42 224 5.2 7.8 0.00 0.00 0.00 40 1010.9
20260507035225 42 221 4.3 7.8 0.00 0.00 0.00 40 1010.9
20260507035004 42 220 4.3 7.8 0.00 0.00 0.00 40 1011.0
20260507034804 42 220 5.2 7.8 0.00 0.00 0.00 40 1011.1
20260507034625 42 221 5.2 7.0 0.00 0.00 0.00 40 1011.1
20260507034425 43 220 5.2 7.8 0.00 0.00 0.00 40 1011.1
20260507034204 43 219 4.3 7.8 0.00 0.00 0.00 40 1011.1
20260507034004 43 218 4.3 7.8 0.00 0.00 0.00 40 1011.2
20260507033825 43 217 4.3 7.8 0.00 0.00 0.00 40 1011.2
20260507033604 43 215 5.2 7.8 0.00 0.00 0.00 39 1011.3
20260507033404 43 215 5.2 7.0 0.00 0.00 0.00 39 1011.3
20260507033204 43 215 5.2 7.0 0.00 0.00 0.00 39 1011.3
20260507033004 43 214 4.3 7.0 0.00 0.00 0.00 39 1011.3
20260507032804 43 213 5.2 7.0 0.00 0.00 0.00 39 1011.3
20260507032604 44 214 5.2 7.8 0.00 0.00 0.00 39 1011.3
20260507032425 44 214 4.3 7.8 0.00 0.00 0.00 39 1011.4
20260507032204 44 213 4.3 7.8 0.00 0.00 0.00 38 1011.3
20260507032003 44 213 5.2 7.8 0.00 0.00 0.00 38 1011.4
20260507031804 44 213 5.2 7.8 0.00 0.00 0.00 38 1011.4
20260507031625 44 213 4.3 6.1 0.00 0.00 0.00 38 1011.3
20260507031404 44 213 4.3 5.2 0.00 0.00 0.00 38 1011.4
20260507031225 45 213 4.3 5.2 0.00 0.00 0.00 38 1011.5
20260507031004 45 214 3.5 5.2 0.00 0.00 0.00 37 1011.5
20260507030804 45 214 3.5 5.2 0.00 0.00 0.00 37 1011.5
20260507030604 45 214 3.5 4.3 0.00 0.00 0.00 36 1011.6
20260507030425 45 212 2.6 4.3 0.00 0.00 0.00 36 1011.6
20260507030225 45 206 2.6 4.3 0.00 0.00 0.00 36 1011.6
20260507030004 45 197 2.6 4.3 0.00 0.00 0.00 35 1011.6
20260507025804 46 188 1.7 4.3 0.00 0.00 0.00 35 1011.7
20260507025604 46 181 1.7 4.3 0.00 0.00 0.00 34 1011.6
20260507025404 46 180 2.6 4.3 0.00 0.00 0.00 34 1011.6
20260507025225 46 179 2.6 4.3 0.00 0.00 0.00 34 1011.6
20260507025025 46 178 2.6 4.3 0.00 0.00 0.00 34 1011.5
20260507024804 46 176 2.6 4.3 0.00 0.00 0.00 34 1011.6
20260507024625 46 176 2.6 4.3 0.00 0.00 0.00 34 1011.5
20260507024425 46 174 2.6 4.3 0.00 0.00 0.00 34 1011.6
20260507024204 46 173 3.5 4.3 0.00 0.00 0.00 34 1011.5
20260507024025 46 173 2.6 4.3 0.00 0.00 0.00 34 1011.6
20260507023804 46 172 2.6 4.3 0.00 0.00 0.00 34 1011.6
20260507023604 46 171 2.6 4.3 0.00 0.00 0.00 34 1011.6
20260507023425 46 171 2.6 4.3 0.00 0.00 0.00 34 1011.6
20260507023204 46 168 2.6 4.3 0.00 0.00 0.00 34 1011.6
20260507023004 46 165 3.5 4.3 0.00 0.00 0.00 34 1011.6
20260507022804 46 162 3.5 4.3 0.00 0.00 0.00 33 1011.6
20260507022604 47 157 2.6 4.3 0.00 0.00 0.00 33 1011.6
20260507022404 47 149 1.7 3.5 0.00 0.00 0.00 33 1011.6
20260507022204 47 144 1.7 3.5 0.00 0.00 0.00 33 1011.6
20260507022003 47 137 1.7 3.5 0.00 0.00 0.00 33 1011.7
20260507021804 47 134 1.7 3.5 0.00 0.00 0.00 33 1011.7
20260507021604 47 131 2.6 3.5 0.00 0.00 0.00 33 1011.7
20260507021404 47 131 2.6 3.5 0.00 0.00 0.00 33 1011.7
20260507021204 47 131 2.6 3.5 0.00 0.00 0.00 33 1011.7
20260507021025 47 132 2.6 4.3 0.00 0.00 0.00 33 1011.8
20260507020825 47 132 2.6 4.3 0.00 0.00 0.00 33 1011.7
20260507020604 47 131 2.6 4.3 0.00 0.00 0.00 33 1011.7
20260507020404 47 131 2.6 4.3 0.00 0.00 0.00 33 1011.7
20260507020225 47 130 2.6 4.3 0.00 0.00 0.00 33 1011.7
20260507020004 47 132 3.5 4.3 0.00 0.00 0.00 33 1011.7
20260507015804 47 135 2.6 4.3 0.00 0.00 0.00 33 1011.7
20260507015604 47 139 3.5 4.3 0.00 0.00 0.00 33 1011.7
20260507015404 47 146 2.6 4.3 0.00 0.00 0.00 32 1011.7
20260507015204 48 155 2.6 3.5 0.00 0.00 0.00 32 1011.8
20260507015004 48 153 1.7 3.5 0.00 0.00 0.00 32 1011.8
20260507014825 48 146 1.7 3.5 0.00 0.00 0.00 32 1011.8
20260507014604 48 138 1.7 3.5 0.00 0.00 0.00 32 1011.7
20260507014404 48 130 1.7 3.5 0.00 0.00 0.00 32 1011.7
20260507014204 48 125 2.6 3.5 0.00 0.00 0.00 32 1011.7
20260507014024 48 121 2.6 3.5 0.00 0.00 0.00 32 1011.8
20260507013804 48 118 1.7 3.5 0.00 0.00 0.00 32 1011.8
20260507013604 48 117 1.7 3.5 0.00 0.00 0.00 32 1011.7
20260507013404 48 114 1.7 3.5 0.00 0.00 0.00 32 1011.8
20260507013204 48 112 1.7 3.5 0.00 0.00 0.00 32 1011.8
20260507013004 48 109 1.7 4.3 0.00 0.00 0.00 32 1011.7
20260507012804 48 106 1.7 4.3 0.00 0.00 0.00 32 1011.7
20260507012604 48 105 1.7 4.3 0.00 0.00 0.00 32 1011.8
20260507012404 48 105 1.7 5.2 0.00 0.00 0.00 32 1011.8
20260507012225 48 104 1.7 5.2 0.00 0.00 0.00 32 1011.8
20260507012003 48 107 2.6 5.2 0.00 0.00 0.00 32 1011.7
20260507011804 48 109 2.6 5.2 0.00 0.00 0.00 32 1011.7
20260507011604 48 110 3.5 5.2 0.00 0.00 0.00 32 1011.8
20260507011404 49 112 2.6 4.3 0.00 0.00 0.00 33 1011.8
20260507011204 49 114 2.6 4.3 0.00 0.00 0.00 32 1011.8
20260507011004 49 114 2.6 4.3 0.00 0.00 0.00 32 1011.8
20260507010804 49 118 1.7 4.3 0.00 0.00 0.00 33 1011.8
20260507010604 49 119 0.9 5.2 0.00 0.00 0.00 33 1011.7
20260507010404 49 119 2.6 5.2 0.00 0.00 0.00 32 1011.7
20260507010204 49 121 1.7 5.2 0.00 0.00 0.00 32 1011.7
20260507010004 49 122 2.6 5.2 0.00 0.00 0.00 32 1011.7
20260507005804 49 127 2.6 5.2 0.00 0.00 0.00 32 1011.7
20260507005604 49 135 3.5 5.2 0.00 0.00 0.00 31 1011.7
20260507005404 50 141 1.7 5.2 0.00 0.00 0.00 31 1011.7
20260507005204 50 137 2.6 6.1 0.00 0.00 0.00 30 1011.7
20260507005004 50 133 3.5 6.1 0.00 0.00 0.00 31 1011.7
20260507004804 50 129 3.5 6.1 0.00 0.00 0.00 31 1011.8
20260507004604 50 125 3.5 6.1 0.00 0.00 0.00 31 1011.8
20260507004404 50 123 4.3 6.1 0.00 0.00 0.00 31 1011.8
20260507004204 50 119 3.5 6.1 0.00 0.00 0.00 31 1011.7
20260507004004 50 120 3.5 6.1 0.00 0.00 0.00 31 1011.8
20260507003825 50 114 4.3 6.1 0.00 0.00 0.00 30 1011.9
20260507003604 50 97 3.5 6.1 0.00 0.00 0.00 31 1011.9
20260507003404 50 89 2.6 7.0 0.00 0.00 0.00 30 1011.9
20260507003204 50 90 1.7 7.0 0.00 0.00 0.00 30 1011.9
20260507003004 50 92 3.5 7.0 0.00 0.00 0.00 30 1011.9
20260507002804 50 100 4.3 7.0 0.00 0.00 0.00 29 1011.9
20260507002604 50 116 5.2 7.0 0.00 0.00 0.00 30 1011.9
20260507002425 50 131 3.5 6.1 0.00 0.00 0.00 30 1011.9
20260507002204 50 146 2.6 4.3 0.00 0.00 0.00 30 1012.0
20260507002025 51 149 1.7 4.3 0.00 0.00 0.00 30 1012.0
20260507001804 51 141 1.7 5.2 0.00 0.00 0.00 30 1012.0
20260507001604 51 131 2.6 5.2 0.00 0.00 0.00 30 1012.1
20260507001404 51 123 2.6 6.1 0.00 0.00 0.00 30 1012.2
20260507001204 51 116 1.7 6.1 0.00 0.00 0.00 29 1012.2
20260507001004 51 121 2.6 6.1 0.00 0.00 0.00 30 1012.2
20260507000804 51 111 3.5 7.0 0.00 0.00 0.00 29 1012.3
20260507000604 51 104 3.5 7.0 0.00 0.00 0.00 29 1012.3
20260507000405 51 104 2.6 7.8 0.00 0.00 0.00 30 1012.2
20260507000205 51 103 3.5 7.8 0.00 0.00 0.00 30 1012.3
20260507000004 51 100 3.5 7.8 0.00 0.00 0.00 30 1012.3
20260506235804 51 106 4.3 7.8 0.00 0.00 0.00 30 1012.3
20260506235604 51 110 4.3 7.8 0.00 0.00 0.00 30 1012.3
20260506235425 51 107 2.6 7.8 0.00 0.00 0.00 30 1012.4
20260506235225 51 97 1.7 10.4 0.00 0.00 0.00 29 1012.4
20260506235004 51 88 3.5 10.4 0.00 0.00 0.00 29 1012.5
20260506234804 51 81 5.2 10.4 0.00 0.00 0.00 29 1012.5
20260506234604 51 70 5.2 10.4 0.00 0.00 0.00 29 1012.4
20260506234425 51 62 7.0 10.4 0.00 0.00 0.00 29 1012.5
20260506234204 51 53 6.1 10.4 0.00 0.00 0.00 29 1012.4
20260506234003 51 49 3.5 12.2 0.00 0.00 0.00 30 1012.5
20260506233804 51 49 5.2 12.2 0.00 0.00 0.00 28 1012.5
20260506233604 52 49 5.2 12.2 0.00 0.00 0.00 28 1012.6
20260506233404 52 51 7.0 12.2 0.00 0.00 0.00 28 1012.6
20260506233204 52 52 8.7 12.2 0.00 0.00 0.00 28 1012.6
20260506233025 52 56 7.8 11.3 0.00 0.00 0.00 28 1012.7
20260506232804 52 63 5.2 10.4 0.00 0.00 0.00 29 1012.7
20260506232604 52 65 1.7 7.0 0.00 0.00 0.00 29 1012.7
20260506232403 52 59 0.9 7.0 0.00 0.00 0.00 29 1012.7
20260506232204 52 59 4.3 7.0 0.00 0.00 0.00 28 1012.7
20260506232004 52 55 5.2 7.0 0.00 0.00 0.00 29 1012.7
20260506231825 52 46 4.3 7.0 0.00 0.00 0.00 29 1012.7
20260506231604 52 43 3.5 7.8 0.00 0.00 0.00 28 1012.6
20260506231425 52 44 2.6 7.8 0.00 0.00 0.00 29 1012.7
20260506231225 52 47 2.6 8.7 0.00 0.00 0.00 28 1012.7
20260506231025 52 51 4.3 8.7 0.00 0.00 0.00 29 1012.7
20260506230804 52 54 6.1 8.7 0.00 0.00 0.00 29 1012.7
20260506230625 52 59 6.1 8.7 0.00 0.00 0.00 28 1012.7
20260506230425 52 59 7.0 8.7 0.00 0.00 0.00 29 1012.7
20260506230204 52 66 6.1 7.8 0.00 0.00 0.00 29 1012.7
20260506230004 52 115 1.7 8.7 0.00 0.00 0.00 29 1012.7
20260506225804 52 133 1.7 8.7 0.00 0.00 0.00 29 1012.7
20260506225603 52 130 1.7 11.3 0.00 0.00 0.00 29 1012.8
20260506225404 52 126 0.9 11.3 0.00 0.00 0.00 29 1012.7
20260506225225 52 115 2.6 11.3 0.00 0.00 0.00 30 1012.8
20260506225003 51 97 5.2 11.3 0.00 0.00 0.00 30 1012.7
20260506224804 51 88 6.1 11.3 0.00 0.00 0.00 30 1012.7
20260506224604 51 84 5.2 11.3 0.00 0.00 0.00 30 1012.8
20260506224404 51 85 7.8 12.2 0.00 0.00 0.00 30 1012.8
20260506224204 51 86 7.8 12.2 0.00 0.00 0.00 30 1012.8
20260506224004 52 85 6.1 12.2 0.00 0.00 0.00 29 1012.8
20260506223804 52 85 6.1 12.2 0.00 0.00 0.00 29 1012.8
20260506223604 52 82 7.8 12.2 0.00 0.00 0.00 29 1012.9
20260506223403 52 67 1.7 7.8 0.00 0.00 0.00 28 1012.9
20260506223204 52 63 3.5 5.2 0.00 0.00 0.00 29 1012.9
20260506223004 53 87 3.5 5.2 0.00 0.00 0.00 28 1013.0
20260506222804 53 161 2.6 5.2 0.00 0.00 0.00 29 1013.0
20260506222604 53 196 1.7 7.8 0.00 0.00 0.00 28 1013.0
20260506222404 53 196 0.9 8.7 0.00 0.00 0.00 29 1013.0
20260506222204 53 186 1.7 8.7 0.00 0.00 0.00 28 1013.1
20260506222004 53 181 3.5 8.7 0.00 0.00 0.00 28 1013.1
20260506221803 53 174 4.3 8.7 0.00 0.00 0.00 29 1013.0
20260506221604 53 144 7.0 8.7 0.00 0.00 0.00 29 1013.1
20260506221404 52 106 4.3 8.7 0.00 0.00 0.00 30 1013.1
20260506221204 52 83 2.6 7.8 0.00 0.00 0.00 29 1013.2
20260506221003 52 75 2.6 7.8 0.00 0.00 0.00 28 1013.2
20260506220804 52 82 5.2 7.8 0.00 0.00 0.00 29 1013.3
20260506220603 52 79 2.6 6.1 0.00 0.00 0.00 30 1013.3
20260506220404 51 97 2.6 6.1 0.00 0.00 0.00 29 1013.4
20260506220204 52 108 3.5 6.1 0.00 0.00 0.00 28 1013.4
20260506220025 52 120 1.7 7.8 0.00 0.00 0.00 29 1013.4
20260506215804 52 130 3.5 8.7 0.00 0.00 0.00 28 1013.4
20260506215604 53 142 4.3 11.3 0.00 0.00 0.00 28 1013.4
20260506215425 52 136 3.5 11.3 0.00 0.00 0.00 29 1013.6
20260506215204 52 128 5.2 11.3 0.00 0.00 0.00 29 1013.6
20260506215024 52 115 3.5 11.3 0.00 0.00 0.00 29 1013.5
20260506214825 52 107 7.0 11.3 0.00 0.00 0.00 30 1013.6
20260506214625 52 90 4.3 10.4 0.00 0.00 0.00 29 1013.6
20260506214404 52 92 4.3 8.7 0.00 0.00 0.00 28 1013.6
20260506214204 53 99 5.2 8.7 0.00 0.00 0.00 29 1013.6
20260506214004 52 118 4.3 8.7 0.00 0.00 0.00 29 1013.7
20260506213825 52 127 5.2 8.7 0.00 0.00 0.00 29 1013.7
20260506213604 53 141 4.3 11.3 0.00 0.00 0.00 28 1013.7
20260506213404 52 148 2.6 11.3 0.00 0.00 0.00 30 1013.8
20260506213204 52 147 4.3 11.3 0.00 0.00 0.00 30 1013.7
20260506213004 52 144 7.0 11.3 0.00 0.00 0.00 28 1013.8
20260506212804 52 140 7.0 11.3 0.00 0.00 0.00 29 1013.9
20260506212625 52 134 7.0 11.3 0.00 0.00 0.00 30 1013.9
20260506212404 52 112 4.3 10.4 0.00 0.00 0.00 30 1013.9
20260506212204 52 100 4.3 10.4 0.00 0.00 0.00 29 1014.0
20260506212004 52 74 4.3 10.4 0.00 0.00 0.00 30 1013.9
20260506211803 51 68 6.1 10.4 0.00 0.00 0.00 29 1013.9
20260506211604 51 64 2.6 10.4 0.00 0.00 0.00 29 1014.0
20260506211404 51 67 0.9 10.4 0.00 0.00 0.00 30 1014.1
20260506211204 51 79 3.5 10.4 0.00 0.00 0.00 29 1014.2
20260506211004 51 90 7.8 11.3 0.00 0.00 0.00 29 1014.2
20260506210804 51 100 5.2 11.3 0.00 0.00 0.00 29 1014.3
20260506210604 51 124 2.6 11.3 0.00 0.00 0.00 29 1014.4
20260506210404 51 138 5.2 11.3 0.00 0.00 0.00 28 1014.5
20260506210204 52 142 5.2 11.3 0.00 0.00 0.00 28 1014.5
20260506210025 52 151 2.6 13.0 0.00 0.00 0.00 28 1014.5
20260506205804 52 150 4.3 13.0 0.00 0.00 0.00 27 1014.6
20260506205604 52 134 5.2 13.0 0.00 0.00 0.00 30 1014.5
20260506205404 52 122 4.3 13.0 0.00 0.00 0.00 29 1014.6
20260506205204 52 132 6.1 13.0 0.00 0.00 0.00 29 1014.6
20260506205004 52 141 2.6 7.8 0.00 0.00 0.00 30 1014.6
20260506204804 52 163 4.3 12.2 0.00 0.00 0.00 29 1014.6
20260506204625 52 166 2.6 12.2 0.00 0.00 0.00 30 1014.7
20260506204404 52 165 2.6 13.0 0.00 0.00 0.00 29 1014.7
20260506204204 52 161 4.3 13.0 0.00 0.00 0.00 30 1014.8
20260506204004 52 158 6.1 13.0 0.00 0.00 0.00 29 1014.7
20260506203804 52 152 8.7 14.8 0.00 0.00 0.00 29 1014.7
20260506203604 52 153 6.1 14.8 0.00 0.00 0.00 30 1014.6
20260506203424 52 154 5.2 14.8 0.00 0.00 0.00 28 1014.7
20260506203204 52 156 7.8 14.8 0.00 0.00 0.00 28 1014.6
20260506203004 52 165 9.6 14.8 0.00 0.00 0.00 29 1014.7
20260506202804 52 197 5.2 13.0 0.00 0.00 0.00 30 1014.8
20260506202604 52 208 1.7 11.3 0.00 0.00 0.00 27 1014.8
20260506202404 52 207 3.5 11.3 0.00 0.00 0.00 29 1014.9
20260506202204 52 207 4.3 11.3 0.00 0.00 0.00 27 1014.8
20260506202004 52 192 7.0 11.3 0.00 0.00 0.00 28 1015.0
20260506201803 52 166 7.8 11.3 0.00 0.00 0.00 29 1014.9
20260506201604 51 139 6.1 11.3 0.00 0.00 0.00 30 1014.9
20260506201404 51 117 4.3 13.9 0.00 0.00 0.00 31 1015.0
20260506201204 51 107 3.5 13.9 0.00 0.00 0.00 29 1015.0
20260506201003 51 107 4.3 13.9 0.00 0.00 0.00 29 1015.1
20260506200804 51 108 6.1 13.9 0.00 0.00 0.00 28 1015.0
20260506200604 51 111 7.0 13.9 0.00 0.00 0.00 30 1015.1
20260506200404 51 118 4.3 7.8 0.00 0.00 0.00 29 1015.1
20260506200204 51 111 3.5 7.0 0.00 0.00 0.00 30 1015.1
20260506200004 51 93 2.6 7.0 0.00 0.00 0.00 31 1015.2
20260506195825 50 81 1.7 7.0 0.00 0.00 0.00 29 1015.2
20260506195604 50 75 1.7 8.7 0.00 0.00 0.00 31 1015.3
20260506195403 50 75 3.5 11.3 0.00 0.00 0.00 29 1015.3
20260506195204 50 81 4.3 11.3 0.00 0.00 0.00 29 1015.3
20260506195024 50 86 5.2 11.3 0.00 0.00 0.00 28 1015.3
20260506194804 51 108 6.1 14.8 0.00 0.00 0.00 29 1015.4
20260506194604 51 116 6.1 14.8 0.00 0.00 0.00 29 1015.4
20260506194425 51 118 5.2 14.8 0.00 0.00 0.00 29 1015.3
20260506194204 51 119 1.7 14.8 0.00 0.00 0.00 28 1015.4
20260506194004 51 114 7.8 14.8 0.00 0.00 0.00 30 1015.5
20260506193804 50 102 6.1 13.9 0.00 0.00 0.00 30 1015.4
20260506193625 50 100 6.1 13.9 0.00 0.00 0.00 30 1015.4
20260506193404 50 112 5.2 13.9 0.00 0.00 0.00 31 1015.4
20260506193204 50 129 5.2 12.2 0.00 0.00 0.00 30 1015.4
20260506193004 50 145 5.2 12.2 0.00 0.00 0.00 30 1015.5
20260506192804 51 157 3.5 7.8 0.00 0.00 0.00 28 1015.5
20260506192604 51 157 3.5 7.8 0.00 0.00 0.00 30 1015.5
20260506192404 50 140 3.5 7.8 0.00 0.00 0.00 29 1015.6
20260506192204 50 114 5.2 7.8 0.00 0.00 0.00 31 1015.6
20260506192004 49 85 0.0 7.8 0.00 0.00 0.00 30 1015.6
20260506191825 49 79 1.7 7.8 0.00 0.00 0.00 30 1015.6
20260506191604 49 82 3.5 8.7 0.00 0.00 0.00 29 1015.6
20260506191403 49 88 3.5 8.7 0.00 0.00 0.00 30 1015.6
20260506191204 49 99 3.5 12.2 0.00 0.00 0.00 32 1015.6
20260506191003 49 106 5.2 12.2 0.00 0.00 0.00 30 1015.7
20260506190825 49 114 5.2 12.2 0.00 0.00 0.00 32 1015.7
20260506190604 49 120 5.2 12.2 0.00 0.00 0.00 28 1015.8
20260506190404 50 119 5.2 12.2 0.00 0.00 0.00 30 1015.7
20260506190225 50 111 5.2 11.3 0.00 0.00 0.00 30 1015.7
20260506190004 49 108 6.1 11.3 0.00 0.00 0.00 31 1015.7
20260506185825 49 109 6.1 11.3 0.00 0.00 0.00 30 1015.8
20260506185604 49 88 7.0 11.3 0.00 0.00 0.00 31 1015.8
20260506185403 49 76 5.2 11.3 0.00 0.00 0.00 30 1015.8
20260506185204 49 77 1.7 8.7 0.00 0.00 0.00 31 1015.9
20260506185003 49 85 2.6 8.7 0.00 0.00 0.00 30 1016.0
20260506184825 49 86 5.2 8.7 0.00 0.00 0.00 30 1016.0
20260506184625 49 107 5.2 8.7 0.00 0.00 0.00 30 1016.0
20260506184404 49 118 3.5 11.3 0.00 0.00 0.00 30 1016.0
20260506184204 49 115 5.2 11.3 0.00 0.00 0.00 30 1016.1
20260506184004 49 115 3.5 11.3 0.00 0.00 0.00 30 1016.1
20260506183804 49 107 6.1 11.3 0.00 0.00 0.00 31 1016.2
20260506183625 49 86 7.0 11.3 0.00 0.00 0.00 30 1016.1
20260506183403 49 69 4.3 11.3 0.00 0.00 0.00 30 1016.2
20260506183225 49 61 5.2 11.3 0.00 0.00 0.00 31 1016.2
20260506183004 48 46 3.5 11.3 0.00 0.00 0.00 29 1016.2
20260506182825 48 44 8.7 11.3 0.00 0.00 0.00 32 1016.4
20260506182604 48 34 4.3 8.7 0.00 0.00 0.00 32 1016.3
20260506182404 48 30 2.6 7.8 0.00 0.00 0.00 30 1016.4
20260506182204 48 39 4.3 11.3 0.00 0.00 0.00 30 1016.5
20260506182004 48 57 3.5 11.3 0.00 0.00 0.00 30 1016.4
20260506181804 48 70 3.5 11.3 0.00 0.00 0.00 29 1016.4
20260506181604 48 80 2.6 11.3 0.00 0.00 0.00 31 1016.5
20260506181403 48 79 6.1 11.3 0.00 0.00 0.00 30 1016.5
20260506181225 49 79 5.2 11.3 0.00 0.00 0.00 31 1016.5
20260506181004 49 69 7.0 11.3 0.00 0.00 0.00 32 1016.5
20260506180825 48 66 4.3 11.3 0.00 0.00 0.00 33 1016.7
20260506180604 48 68 5.2 11.3 0.00 0.00 0.00 31 1016.8
20260506180425 48 71 7.8 11.3 0.00 0.00 0.00 31 1016.8
20260506180204 48 78 7.8 11.3 0.00 0.00 0.00 30 1016.7
20260506180005 48 68 3.5 11.3 0.00 0.00 0.00 34 1016.9
20260506175804 47 48 4.3 12.2 0.00 0.00 0.00 32 1016.8
20260506175604 47 34 2.6 12.2 0.00 0.00 0.00 32 1016.9
20260506175403 46 28 1.7 12.2 0.00 0.00 0.00 31 1016.9
20260506175204 47 34 7.0 13.9 0.00 0.00 0.00 30 1017.0
20260506175004 47 37 7.0 13.9 0.00 0.00 0.00 31 1017.0
20260506174804 47 43 7.8 13.9 0.00 0.00 0.00 32 1017.0
20260506174604 47 46 4.3 13.9 0.00 0.00 0.00 30 1017.0
20260506174404 47 54 10.4 13.9 0.00 0.00 0.00 32 1017.0
20260506174204 47 67 5.2 12.2 0.00 0.00 0.00 32 1017.0
20260506174025 47 68 5.2 12.2 0.00 0.00 0.00 33 1017.1
20260506173804 47 66 6.1 12.2 0.00 0.00 0.00 32 1017.1
20260506173625 47 73 4.3 12.2 0.00 0.00 0.00 32 1017.0
20260506173403 47 72 7.0 12.2 0.00 0.00 0.00 32 1017.1
20260506173204 47 67 3.5 7.8 0.00 0.00 0.00 33 1017.1
20260506173024 46 60 3.5 7.8 0.00 0.00 0.00 33 1017.1
20260506172804 46 61 3.5 11.3 0.00 0.00 0.00 34 1017.2
20260506172604 46 59 2.6 13.0 0.00 0.00 0.00 32 1017.2
20260506172404 46 59 4.3 13.0 0.00 0.00 0.00 32 1017.3
20260506172204 46 57 6.1 13.9 0.00 0.00 0.00 32 1017.3
20260506172004 46 57 8.7 13.9 0.00 0.00 0.00 32 1017.3
20260506171803 46 56 8.7 13.9 0.00 0.00 0.00 32 1017.3
20260506171604 46 53 7.8 13.9 0.00 0.00 0.00 31 1017.3
20260506171403 46 44 9.6 13.9 0.00 0.00 0.00 33 1017.2
20260506171204 46 7 7.0 12.2 0.00 0.00 0.00 32 1017.3
20260506171003 46 312 7.8 12.2 0.00 0.00 0.00 34 1017.3
20260506170804 46 275 1.7 7.0 0.00 0.00 0.00 32 1017.4
20260506170625 46 266 3.5 8.7 0.00 0.00 0.00 33 1017.4
20260506170404 46 257 4.3 8.7 0.00 0.00 0.00 32 1017.5